Helicity
217 325 318 356 354 380 298 273 226 216 191 163 210 198 214 201 194 169 139 124 116 109 108 123 78 171 170 206 195 166 164 236 198 189 207 199 185 126 134 105 98 78 100
300 375 317 332 358 349 267 341 284 270 208 192 191 207 179 171 177 165 172 125 107 133 119 108 101 192 140 165 162 126 108 155 192 164 209 207 155 140 112 115 89 79 73
329 211 296 312 270 290 332 351 362 324 234 212 187 197 182 179 172 156 150 125 97 113 129 93 79 130 105 161 155 121 157 197 169 210 186 201 158 184 107 80 76 80 121
258 261 295 237 201 261 324 333 303 245 200 179 156 154 149 160 166 160 143 128 95 71 89 79 63 70 69 89 110 107 140 154 155 145 158 149 171 149 133 109 67 78 52
301 288 254 291 158 223 291 335 242 210 171 182 170 154 146 145 172 135 143 137 115 88 72 54 49 49 47 67 74 74 95 87 89 110 116 81 67 82 77 101 102 67 74
347 303 290 359 506 411 255 244 213 125 155 186 162 178 256 251 225 167 111 109 87 66 46 35 34 22 19 32 42 47 60 51 45 45 75 88 80 106 125 122 108 125 113
375 356 323 306 526 642 634 444 357 219 290 326 365 316 313 273 278 188 166 140 138 163 146 105 107 127 111 77 32 141 171 197 189 157 134 160 156 178 174 165 200 199 223
371 360 335 317 415 462 648 695 581 533 466 473 475 491 384 363 324 228 211 264 282 256 259 254 207 202 194 180 205 243 237 210 171 176 188 199 179 180 172 206 226 235 238
194 369 257 238 311 392 555 682 661 667 723 695 618 567 484 411 379 280 325 344 321 305 282 284 249 222 244 198 255 326 355 351 295 335 376 372 357 324 227 203 211 194 197
132 129 251 167 204 263 171 227 471 630 798 700 836 696 588 451 362 364 343 370 384 365 336 323 350 273 266 253 234 279 339 313 336 323 367 356 351 391 358 280 214 261 264
45 83 91 138 96 84 184 217 220 138 448 509 628 580 620 479 358 338 367 408 310 353 390 368 349 330 296 340 353 343 330 286 289 286 299 326 386 354 370 338 354 292 280
26 40 66 94 103 94 84 128 93 110 166 179 243 390 436 474 550 531 444 365 290 256 285 304 331 315 377 352 339 399 391 377 331 358 328 334 323 302 311 281 268 283 283
13 40 64 93 114 114 115 109 110 105 68 60 107 49 93 104 131 219 246 343 317 272 292 210 243 299 330 369 395 350 303 326 321 297 293 310 276 201 199 230 236 237 249
44 25 30 49 88 123 133 144 129 89 79 76 73 89 69 74 81 71 80 86 117 141 145 160 201 238 278 294 292 286 282 276 268 253 241 237 256 275 259 195 164 170 230
67 76 23 15 35 54 95 119 127 156 115 105 109 94 103 111 110 123 126 129 125 119 111 136 162 189 219 254 293 303 289 288 263 230 224 228 241 265 287 249 215 225 216
74 71 86 53 37 31 42 79 178 172 204 223 196 142 177 204 187 200 214 206 215 216 242 237 238 221 216 218 240 267 276 263 254 242 237 236 236 241 255 261 237 204 211
89 84 78 91 94 58 44 55 100 168 214 235 260 262 232 170 166 177 187 212 206 213 202 190 196 206 208 212 231 237 233 234 236 253 242 227 208 213 232 266 273 267 240
103 100 86 90 91 99 105 79 78 102 144 183 231 216 232 229 202 180 182 206 228 241 209 190 186 188 189 193 201 208 215 214 232 252 276 250 235 225 236 259 264 250 257
88 90 92 106 108 96 93 103 117 135 148 169 191 150 177 216 232 241 232 200 179 190 194 213 203 193 194 195 204 219 226 214 209 224 246 259 226 195 208 227 214 228 226
84 114 107 105 106 116 113 93 100 121 147 177 198 157 132 156 198 211 224 216 202 184 185 209 224 239 228 193 190 196 221 231 227 229 244 241 216 179 200 218 224 183 187
101 94 99 99 121 124 122 89 74 75 107 153 176 156 143 133 146 167 184 213 212 199 182 179 194 198 202 201 183 178 187 197 206 225 249 242 206 210 175 172 195 170 158
103 90 103 112 95 113 130 123 107 69 75 116 133 149 156 129 131 140 149 150 155 159 160 162 184 195 167 168 163 164 178 197 210 209 223 227 204 209 197 168 147 138 128
120 102 87 101 96 96 109 136 122 111 101 99 94 98 106 112 122 129 130 123 128 137 133 138 142 154 145 138 135 129 138 155 152 156 188 201 181 177 175 158 153 165 136
118 126 117 110 92 81 84 106 108 108 99 84 75 74 70 70 79 96 105 101 100 99 103 108 114 105 91 106 97 105 113 119 126 135 149 164 164 150 156 142 139 139 141
95 108 118 125 130 136 99 84 85 92 92 88 85 86 75 70 73 83 89 91 86 76 83 85 89 81 106 104 99 109 120 131 124 132 137 157 162 161 148 138 147 145 153
90 94 87 85 111 120 128 120 116 105 94 99 97 91 80 76 65 76 80 89 98 71 65 72 93 81 104 89 95 109 112 116 119 138 140 133 126 135 121 132 151 135 131
Wind_Speed
51 38 38 38 36 34 34 33 32 28 25 23 16 16 14 9 7 9 8 12 18 17 17 17 19 37 38 39 42 44 35 36 40 39 35 31 40 38 32 30 36 34 32
46 40 34 32 33 33 34 31 31 29 28 23 22 21 19 13 9 9 9 10 13 12 13 14 15 27 31 35 35 51 44 45 53 47 47 37 30 35 39 30 27 24 18
49 45 40 38 33 29 28 26 27 28 31 27 25 25 24 20 13 11 9 11 13 14 14 14 14 17 17 23 25 32 37 41 55 53 54 50 38 40 40 42 36 27 29
49 45 47 49 39 28 24 27 27 31 32 32 32 30 27 24 19 14 11 10 10 12 13 10 12 13 14 19 23 26 29 32 34 38 44 43 43 43 42 45 46 40 43
45 43 47 49 45 26 24 29 32 34 34 37 30 30 27 25 27 20 16 15 14 16 17 19 19 17 15 17 20 21 23 23 27 30 36 39 39 39 39 39 39 44 48
44 41 40 39 40 40 26 29 29 29 27 35 29 30 30 30 35 30 23 22 22 21 19 19 19 13 14 12 12 16 15 14 18 23 26 28 29 31 34 36 40 45 48
41 38 36 34 31 33 30 27 33 28 32 40 35 29 32 37 42 33 25 23 21 25 27 28 25 28 28 27 21 23 31 35 36 35 34 37 42 42 42 38 39 42 44
40 39 35 31 31 30 25 28 29 30 34 35 33 33 35 42 48 43 27 22 16 18 31 32 31 33 36 33 27 27 33 39 44 41 41 43 45 45 42 44 45 43 41
47 40 38 33 32 31 30 29 32 28 33 36 36 36 42 42 46 37 24 25 22 23 29 35 37 37 39 34 27 27 30 31 31 29 30 37 41 45 46 39 44 47 51
45 40 38 37 35 33 29 24 25 30 22 28 28 35 35 37 40 35 28 24 24 28 29 39 44 45 42 38 31 27 29 29 29 29 33 35 39 42 41 42 45 49 48
54 45 42 40 35 34 33 31 32 27 24 28 26 31 32 33 34 33 27 27 30 29 33 37 41 38 35 32 30 30 27 22 23 29 35 34 39 40 40 42 43 39 42
56 51 48 47 42 40 37 33 31 31 28 24 25 30 33 32 30 27 22 16 13 19 26 30 29 26 28 24 19 18 24 21 26 28 33 34 35 38 39 38 38 37 37
55 55 52 50 45 42 40 39 36 32 31 29 28 25 28 30 26 23 20 20 16 14 18 19 21 25 23 24 24 25 29 29 28 29 33 34 33 31 31 33 35 35 37
54 51 52 50 47 45 43 42 38 37 35 33 30 29 28 29 28 26 22 16 18 16 16 20 22 23 25 25 24 26 28 30 30 28 28 29 30 32 34 35 33 36 41
53 52 48 48 46 45 46 44 42 42 37 34 34 31 30 31 29 26 25 24 20 19 18 24 24 25 26 29 29 30 31 29 29 31 29 29 32 34 37 37 37 39 45
53 52 51 47 45 45 44 44 47 42 41 40 38 34 33 31 31 29 27 26 25 24 26 28 30 32 31 30 32 33 31 31 31 33 34 34 36 38 40 42 42 45 48
54 52 50 48 47 43 41 42 41 42 43 43 43 41 37 33 33 32 31 31 30 28 28 29 30 30 30 30 32 34 34 35 34 36 38 39 39 41 43 45 47 49 51
54 53 50 49 47 45 42 39 38 38 39 40 41 39 39 38 37 35 33 32 32 34 32 33 33 34 35 34 34 34 35 36 37 38 41 41 42 43 45 48 50 51 52
55 54 52 50 47 44 42 40 39 39 39 40 40 39 39 38 37 37 36 34 33 33 33 34 34 34 34 34 35 36 36 37 39 41 43 45 45 44 47 49 49 52 53
55 54 52 51 49 48 45 43 43 43 41 42 43 42 40 39 40 40 39 38 36 36 36 36 38 38 38 38 38 39 40 42 43 45 47 47 47 47 49 50 52 52 54
56 54 53 51 50 49 48 44 42 42 40 42 43 42 40 39 41 41 42 42 42 41 40 39 40 41 41 42 41 41 42 45 47 48 50 51 50 51 50 49 51 50 53
59 55 53 52 49 49 49 46 43 40 40 42 44 44 42 41 42 42 42 42 42 41 41 41 42 43 43 43 44 45 46 48 50 50 51 51 50 50 50 49 50 51 52
60 57 55 52 50 49 47 46 45 43 43 43 43 44 43 42 41 41 41 41 41 41 42 42 42 42 42 44 45 46 47 48 49 49 50 51 50 49 49 49 50 52 51
57 56 55 55 53 50 47 47 46 45 45 44 43 42 40 39 39 40 40 41 41 40 41 41 42 41 41 43 45 45 46 47 48 47 47 49 51 50 51 50 51 52 53
56 54 53 52 52 51 47 45 44 44 43 43 43 42 41 39 40 41 41 41 42 41 42 43 43 41 42 44 46 47 48 48 48 47 47 49 49 47 47 48 50 51 54
53 52 51 51 51 50 49 48 46 46 45 43 43 42 41 41 40 42 44 44 44 41 41 43 44 39 43 46 46 45 47 48 48 47 46 47 47 48 47 50 51 51 54
Wind_Direction
278 252 234 242 243 248 248 240 240 239 233 245 250 260 266 257 219 197 229 218 208 244 240 243 232 258 256 261 266 268 268 271 272 285 279 279 293 295 286 284 285 287 289
298 275 255 249 247 247 248 243 242 239 239 241 263 274 277 271 233 207 224 234 215 213 229 226 256 265 254 256 261 263 266 274 271 276 282 283 285 288 288 290 283 280 271
297 291 280 269 255 243 242 240 239 237 243 253 266 275 280 279 265 251 225 246 250 237 244 234 232 265 254 255 259 266 265 275 274 279 276 283 282 286 288 288 290 285 290
297 291 285 278 271 247 240 237 236 242 245 258 269 275 276 276 280 270 265 251 251 263 267 249 244 247 247 267 269 270 273 277 277 281 282 283 286 285 287 286 292 293 296
305 304 291 284 279 260 242 242 240 246 255 259 268 275 278 279 280 275 269 267 266 276 280 279 277 275 270 276 280 280 278 277 281 284 287 288 288 289 287 289 291 295 299
315 308 303 298 285 278 244 235 239 246 252 256 266 270 276 282 283 281 275 271 271 276 276 277 279 270 275 272 268 284 283 270 272 283 288 291 293 294 295 292 293 296 298
328 318 316 307 301 284 276 257 253 258 259 260 261 266 275 279 278 279 276 274 275 281 282 280 278 286 284 284 277 284 292 292 289 289 288 290 293 296 297 295 298 299 301
337 335 332 327 314 302 287 272 275 275 272 268 272 271 271 278 275 272 269 277 285 291 284 284 282 282 286 283 283 285 292 294 291 291 292 293 296 297 301 300 300 301 308
355 340 348 346 336 319 305 300 295 291 288 282 282 279 275 279 279 270 259 269 283 296 297 288 284 283 286 286 282 283 290 298 310 310 310 310 308 305 299 299 297 299 302
343 340 346 354 344 330 324 321 334 310 310 293 302 292 287 281 283 274 274 273 286 291 300 291 289 286 287 284 278 279 282 291 301 309 310 318 318 319 320 312 304 301 303
354 346 349 348 342 332 335 338 330 318 330 314 321 314 310 302 299 294 285 280 286 297 295 294 293 297 294 291 287 284 282 290 300 309 305 312 315 320 326 326 324 317 312
1 357 355 353 346 342 338 327 344 330 333 315 327 321 321 319 316 318 327 320 306 301 295 300 302 310 316 307 316 311 296 302 302 306 301 315 318 322 331 337 340 343 342
360 0 358 359 354 348 344 344 339 331 336 329 337 321 321 325 329 330 348 349 357 334 313 318 317 321 314 323 329 307 302 305 305 306 306 317 326 331 338 340 346 349 349
355 356 358 358 357 352 350 349 342 342 330 320 329 331 315 317 315 323 340 349 1 341 313 316 327 318 319 326 325 315 314 317 319 323 326 331 336 336 334 332 332 339 338
355 355 358 358 355 353 355 351 352 355 344 338 331 330 318 311 317 326 331 330 331 332 321 305 315 311 317 324 327 321 327 334 333 330 332 335 335 336 336 337 336 334 329
352 351 351 353 357 357 357 352 4 1 357 357 353 349 353 357 354 350 349 344 338 332 327 317 314 311 314 317 315 319 331 332 332 331 329 332 328 328 328 329 332 329 327
348 348 349 348 349 350 353 356 355 0 7 7 6 2 359 357 356 354 354 356 348 345 331 328 327 325 324 325 324 322 323 328 333 329 327 328 327 327 326 326 327 327 326
343 344 346 344 343 343 344 349 351 349 348 350 356 358 359 2 2 2 1 359 342 343 339 332 331 331 330 328 328 329 332 332 330 327 328 328 330 328 327 326 325 325 325
339 338 338 339 340 340 340 339 339 338 337 337 337 338 339 344 347 350 353 347 343 340 341 339 337 336 334 332 331 330 331 330 328 326 327 328 328 327 325 326 326 325 325
333 334 334 334 332 332 331 330 329 328 327 326 327 327 328 329 330 332 334 335 334 332 331 330 328 328 326 325 325 324 325 325 325 325 324 325 327 326 325 326 326 325 325
332 332 331 330 329 329 328 327 327 327 325 323 324 326 327 326 324 323 323 324 324 323 323 323 323 323 323 323 323 322 323 322 323 323 323 324 325 324 325 327 328 328 328
330 331 331 328 328 326 324 324 325 324 323 322 321 324 326 324 322 321 321 321 322 322 321 321 320 320 321 321 321 321 320 319 320 321 323 324 325 327 327 327 328 328 329
328 327 327 326 326 326 324 323 321 321 321 321 321 320 321 321 322 322 321 322 322 322 323 323 323 323 325 326 326 325 322 322 323 323 324 325 325 326 328 329 329 329 328
329 328 326 325 325 324 323 322 320 319 318 318 318 319 320 322 323 323 323 323 324 325 326 325 326 325 326 328 329 330 329 328 327 326 326 326 325 325 325 325 326 326 327
332 330 330 328 326 324 324 323 322 320 319 319 318 318 318 319 320 320 321 320 321 321 324 325 324 325 327 328 328 329 329 327 326 326 326 327 327 329 329 328 327 327 327
336 334 330 328 326 325 324 323 322 321 320 321 321 320 320 319 320 320 320 319 318 321 322 323 325 326 326 326 328 329 328 328 327 327 327 326 326 327 328 327 326 327 328